Regional Weather Roundup
Issued by NWS State College, PA

Home | Current Version | Previous Version | Text Only | Print | Product List | Glossary On
Versions: 1 2 3 4 5 6 7 8 9 10 11 12 13 14 15 16 17 18 19 20 21 22 23 24 25 26 27 28 29 30 31 32 33 34 35 36 37 38 39 40 41 42 43 44 45 46 47 48 49 50
000
ASUS41 KCTP 271810
RWRCTP

REGIONAL WEATHER ROUNDUP
NATIONAL WEATHER SERVICE STATE COLLEGE PA
200 PM EDT MON MAR 27 2017

Note: "fair" indicates few or no clouds below 12,000 feet with no
significant weather and/or obstructions to visibility.

* = STATION THAT DOES NOT REPORT PRECIPITATION /E.G. RAIN...SNOW...ETC/
    THUNDER OR FOG.

PAZ002>004-007>009-013>016-020>023-029>032-271900-
WESTERN PENNSYLVANIA

CITY           SKY/WX    TMP DP  RH WIND       PRES   REMARKS
ERIE           CLOUDY    55  48  77 W12G20    29.95F
MEADVILLE      CLOUDY    58  47  66 W16       29.96S
FRANKLIN*      CLOUDY    61  48  63 W8        29.98F
NEW CASTLE     CLOUDY    61  49  64 W10       29.97F
BEAVER COUNTY  CLOUDY    61  46  59 SW9G16    29.98F
BUTLER*        PTSUNNY   63  46  55 SW14      29.99F
PITTSBURGH INT PTSUNNY   63  50  62 W12       29.97F
PITTSBURGH     MOSUNNY   65  47  52 W10G16    29.97F
INDIANA*       PTSUNNY   63  50  63 W10G18    30.00F
LATROBE        PTSUNNY   64  50  59 W14       29.99S
WASHINGTON CO* PTSUNNY   66  48  52 SW12G20   30.00F
$$

PAZ004>006-010>012-017>019-024>028-033>037-041-042-045-046-049>053-271900-
CENTRAL PENNSYLVANIA

CITY           SKY/WX    TMP DP  RH WIND       PRES   REMARKS
BRADFORD       CLOUDY    56  49  77 VRB6      29.95F
DUBOIS         CLOUDY    59  46  62 W16G23    29.96F
CLEARFIELD       N/A    N/A N/A N/A MISG      29.97F
JOHNSTOWN      MOSUNNY   61  47  59 W18G25    29.97F
ALTOONA        MOSUNNY   65  54  67 S12       29.97F
STATE COLLEGE  MOSUNNY   59  50  72 SW7       29.98F
WILLIAMSPORT   CLOUDY    50  44  80 E3        30.01F
SELINSGROVE    CLOUDY    51  47  86 S9        30.02F
FT INDIANTOWN  CLOUDY    48  48 100 CALM      30.03F
CAPITAL CITY   CLOUDY    50  45  83 CALM      30.02F HAZE
HARRISBURG     CLOUDY    48  47  96 W3        30.02F FOG
YORK           CLOUDY    56  53  90 NW3       30.01F
$$

PAZ038>040-043-044-047-048-054-055-060>062-067>071-271900-
EASTERN PENNSYLVANIA

CITY           SKY/WX    TMP DP  RH WIND       PRES   REMARKS
SCRANTON       CLOUDY    50  46  86 SW9       30.00F
MOUNT POCONO   CLOUDY    49  47  93 W13G22    29.99F
ALLENTOWN      CLOUDY    47  43  86 CALM      30.04F FOG
QUAKERTOWN*    CLOUDY    48  46  93 W5        30.05F
READING        CLOUDY    48  47  96 CALM      30.03F
LANCASTER      CLOUDY    52  49  89 N3        30.02F FOG
COATESVILLE    CLOUDY    54  52  94 CALM      30.04F
POTTSTOWN      CLOUDY    50  46  86 NW5       30.04F FOG
BLUE BELL      CLOUDY    52  50  93 CALM      30.03F
DOYLESTOWN     CLOUDY    51  48  89 W6        30.03F
WILLOW GROVE   NOT AVBL
NORTH PHILA    CLOUDY    54  50  86 CALM      30.05F FOG
PHILADELPHIA   CLOUDY    54  50  86 SW9       30.04F
$$



USA.gov is the U.S. government's official web portal to all federal, state and local government web resources and services.